Zurück zum Katalog

STARLINK-11425

AktivKommunikationVLEO
NORAD 61943·PAYLOAD·🇺🇸 United States

Gestartet Nov 14, 2024 von Vandenberg Space Force Base

Loading…

Nächste Überflüge (nächste 24 Stunden)

TLE

AktuellSource: CelesTrak SupGP

Epoche: Sep 15, 2026, 02:13 UTC

1 61943C 24209E   26258.09284722  .00005129  00000+0  42245-4 0  2582
2 61943  53.1569 157.8579 0001295  88.1157 211.8263 15.69709594    12

Verfolge STARLINK-11425 in Echtzeit mit AllMySat

Download on the App Store